Location: Old Broadwell Mill Observatory
(33.8015°N, 85.8137°W)
Time: 19:02:43
(UTC-05:00)

Gurwin Techsat 1B - Visible Passes

Search period start: 28 June 2016 00:00
Search period end: 08 July 2016 00:00
Orbit: 812 x 814 km, 98.6° (Epoch: 27 June)

Date Brightness Start Highest point End Pass type
(mag) Time Alt. Az. Time Alt. Az. Time Alt. Az.
28 Jun 10.9 01:32:58 10° ENE 01:35:21 13° E 01:35:27 13° E visible
28 Jun 8.7 03:10:23 10° N 03:15:38 62° WNW 03:16:39 51° WSW visible
29 Jun 8.5 02:47:33 10° NNE 02:52:54 80° ESE 02:53:34 67° SSE visible
29 Jun 10.7 04:30:40 10° NW 04:32:06 11° WNW 04:33:32 10° WNW visible
30 Jun 9.2 02:24:58 10° NNE 02:30:06 47° E 02:30:29 46° ESE visible
30 Jun 10.3 04:06:02 10° NNW 04:09:37 19° WNW 04:11:41 15° W visible
01 Jul 10.0 02:02:42 10° NE 02:07:13 28° E 02:07:23 28° E visible
01 Jul 9.6 03:42:29 10° N 03:47:04 30° WNW 03:48:36 26° W visible
02 Jul 10.7 01:41:01 10° NE 01:44:16 16° E 01:44:18 16° E visible
02 Jul 8.9 03:19:19 10° N 03:24:26 50° WNW 03:25:30 43° WSW visible
03 Jul 8.5 02:56:23 10° NNE 03:01:44 84° WNW 03:02:25 69° SSW visible
04 Jul 8.9 02:33:42 10° NNE 02:38:57 58° E 02:39:19 56° ESE visible
04 Jul 10.5 04:15:22 10° NNW 04:18:21 15° WNW 04:20:31 12° W visible
05 Jul 9.7 02:11:18 10° NNE 02:16:06 34° E 02:16:13 34° E visible
05 Jul 9.9 03:51:34 10° NNW 03:55:50 25° WNW 03:57:25 22° W visible
06 Jul 10.5 01:49:19 10° NE 01:53:07 20° E 01:53:07 20° E visible
06 Jul 9.2 03:28:16 10° N 03:33:14 41° WNW 03:34:20 36° W visible
07 Jul 11.1 01:28:31 10° ENE 01:30:01 11° E 01:30:01 11° E visible
07 Jul 8.5 03:05:15 10° N 03:10:33 69° WNW 03:11:14 61° WSW visible
